sat.trackr.live / text

‹ back to catalog

ONEWEB-0221

NORAD 48789 · 2021-045Y

PAYLOAD ACTIVE UNKNOWN

§ Identity

Operator
Country
UK
Launch date
2021-05-28
Launch site
VOSTO
Launch vehicle
Mass (kg)
RCS (m²)

Purposes: comms

External: N2YO · Heavens-Above · Gunter

§ Orbital elements

Epoch: 2026-05-25T01:06:55.078848Z

Period
109.46 min
Inclination
87.8999°
Eccentricity
0.0001718
Mean motion
13.15546631 rev/d
Perigee alt
1,200.5 km
Apogee alt
1,203.1 km
Semi-major
7,579.9 km
B*
-4.5580e-4
RAAN
263.7993°
Arg perigee
97.1824°
Mean anomaly
262.9502°
Rev number
24,133

§ Raw data

ONEWEB-02211 48789U 21045Y   26145.04647082 -.00000159  00000+0 -45580-3 0  99982 48789  87.8999 263.7993 0001718  97.1824 262.9502 13.15546631241339

JSON: /api/v1/satellites/48789 · /tle

For live sub-satellite position, see the globe view (requires WebGL).

§ Visibility from observer

Set your observer location to see the next 7 days of passes ≥ 10°. The values pass through the URL so the page stays shareable.

No JS? Fill the form by hand. The geolocation button needs JavaScript.